Panama City Tyndall AFB, FL

5:40 PM CDT on April 29, 2017 (GMT -0500)
Tyndall Air Force Base

Weather History for KPAM - June, 2014

Change the Weather History Date:

Tuesday, June 17, 2014

  Actual Average Record
Temperature  
Mean Temperature 81 °F -  
Max Temperature 89 °F 85 °F 91 °F (1998)
Min Temperature 73 °F 71 °F 70 °F (2007)
Cooling Degree Days 16    
Growing Degree Days 31 (Base 50)    
Moisture  
Dew Point 74 °F    
Average Humidity 85    
Maximum Humidity 100    
Minimum Humidity 58    
Precipitation  
Precipitation 0.45 in - - ()
Sea Level Pressure  
Sea Level Pressure 30.11 in    
Wind  
Wind Speed 4 mph (WNW)    
Max Wind Speed 23 mph    
Max Gust Speed 32 mph    
Visibility 9 miles    
Events Rain , Thunderstorm    
Averages and records for this station are not official NWS values.
T = Trace of Precipitation, MM = Missing Value Source: NWS Daily Summary

Daily Weather History Graph

Daily Weather History Graph

Search for Another Location

Airport or City:

Trip Planner

Search our weather history database for the weather conditions in past years. The results will help you decide how hot, cold, wet, or windy it might be!

Date:

Astronomy

Jun. 17, 2014 Rise Set
Actual Time 5:40 AM CDT 7:45 PM CDT
Civil Twilight 5:13 AM CDT 8:13 PM CDT
Nautical Twilight 4:40 AM CDT 8:46 PM CDT
Astronomical Twilight 4:04 AM CDT 9:22 PM CDT
Moon 11:36 PM CDT (6/17) 10:35 AM CDT (6/17)
Length of Visible Light 14h 59m
Length of Day
14h 04m
Waning Gibbous, 73% of the Moon is Illuminated
Jun 17
Waning Gibbous
Jun 19
Last Quarter
Jun 27
New
Jul 5
First Quarter
Jul 12
Full

Hourly Weather History & Observations

Time (CDT) Temp. Heat Index Dew Point Humidity Pressure Visibility Wind Dir Wind Speed Gust Speed Precip Events Conditions
12:58 AM 78.6 °F - 73.2 °F 83% 30.13 in 10.0 mi NW 2.3 mph - N/A   Clear
1:58 AM 76.6 °F - 73.9 °F 91% 30.12 in 10.0 mi WNW 2.3 mph - N/A   Clear
2:58 AM 74.8 °F - 74.5 °F 99% 30.11 in 10.0 mi Calm Calm - N/A   Clear
3:58 AM 73.4 °F - 73.4 °F 100% 30.12 in 10.0 mi ESE 2.3 mph - N/A   Clear
4:13 AM 73.4 °F - 73.4 °F 100% 30.11 in 10.0 mi Calm Calm - N/A   Partly Cloudy
4:18 AM 73.4 °F - 73.4 °F 100% 30.11 in 9.0 mi Calm Calm - N/A   Scattered Clouds
4:53 AM 73.4 °F - 73.4 °F 100% 30.12 in 8.0 mi Calm Calm - N/A   Mostly Cloudy
4:58 AM 73.2 °F - 73.2 °F 100% 30.13 in 7.0 mi Calm Calm - N/A   Mostly Cloudy
5:03 AM 73.4 °F - 73.4 °F 100% 30.12 in 8.0 mi ENE 2.3 mph - N/A   Mostly Cloudy
5:08 AM 73.4 °F - 73.4 °F 100% 30.12 in 10.0 mi NE 2.3 mph - N/A   Mostly Cloudy
5:13 AM 73.4 °F - 73.4 °F 100% 30.12 in 10.0 mi Calm Calm - N/A   Scattered Clouds
5:58 AM 73.6 °F - 73.6 °F 100% 30.14 in 10.0 mi Calm Calm - N/A   Partly Cloudy
6:08 AM 73.4 °F - 73.4 °F 100% 30.14 in 4.0 mi North 2.3 mph - N/A   Clear
6:18 AM 73.4 °F - 73.4 °F 100% 30.14 in 6.0 mi NNE 3.5 mph - N/A   Clear
6:58 AM 77.5 °F - 77.5 °F 100% 30.16 in 10.0 mi NNE 4.6 mph - N/A   Clear
7:58 AM 81.5 °F 87.4 °F 74.3 °F 79% 30.18 in 10.0 mi North 5.8 mph - N/A   Partly Cloudy
8:59 AM 86.0 °F 91.8 °F 71.6 °F 62% 30.18 in 10.0 mi NNW 9.2 mph - N/A   Partly Cloudy
9:59 AM 87.8 °F 93.8 °F 71.6 °F 58% 30.18 in 10.0 mi NW 4.6 mph - N/A   Clear
10:59 AM 87.8 °F 95.6 °F 73.4 °F 62% 30.17 in 10.0 mi Variable 4.6 mph - N/A   Partly Cloudy
11:58 AM 89.1 °F 98.5 °F 74.7 °F 62% 30.15 in 10.0 mi WSW 10.4 mph - N/A   Scattered Clouds
12:59 PM 89.6 °F 99.8 °F 75.2 °F 62% 30.13 in 10.0 mi West 12.7 mph - N/A   Scattered Clouds
2:05 PM 89.6 °F 99.8 °F 75.2 °F 62% 30.11 in 10.0 mi West 11.5 mph - N/A   Scattered Clouds
2:58 PM 89.6 °F 99.3 °F 74.5 °F 61% 30.10 in 10.0 mi West 10.4 mph - N/A   Clear
3:58 PM 89.6 °F 100.4 °F 75.4 °F 63% 30.08 in 10.0 mi WSW 10.4 mph - N/A   Clear
4:58 PM 89.2 °F 99.0 °F 74.8 °F 62% 30.07 in 10.0 mi West 11.5 mph - N/A Thunderstorm Clear
5:16 PM 87.8 °F 97.6 °F 75.2 °F 66% 30.05 in 10.0 mi West 11.5 mph - N/A Thunderstorm Mostly Cloudy
5:19 PM 87.8 °F 99.7 °F 77.0 °F 70% 30.05 in 10.0 mi West 11.5 mph - N/A Thunderstorm Thunderstorm
5:31 PM 87.8 °F 99.7 °F 77.0 °F 70% 30.06 in 10.0 mi SW 10.4 mph - N/A Thunderstorm Thunderstorm
5:42 PM 86.0 °F 95.1 °F 75.2 °F 70% 30.09 in 10.0 mi SSE 10.4 mph - N/A Thunderstorm Thunderstorm
5:52 PM 84.2 °F 87.3 °F 68.0 °F 58% 30.10 in 10.0 mi SE 18.4 mph 27.6 mph N/A Thunderstorm Thunderstorm
5:58 PM 82.4 °F 85.4 °F 68.0 °F 62% 30.10 in 10.0 mi SE 23.0 mph 28.8 mph N/A Thunderstorm Thunderstorm
6:05 PM 78.8 °F - 71.6 °F 78% 30.11 in 3.0 mi SE 13.8 mph 32.2 mph N/A Rain , Thunderstorm Thunderstorms and Rain
6:07 PM 78.8 °F - 71.6 °F 78% 30.12 in 2.0 mi ENE 15.0 mph 32.2 mph N/A Rain , Thunderstorm Thunderstorms and Rain
6:12 PM 77.0 °F - 68.0 °F 74% 30.10 in 3.0 mi South 12.7 mph 32.2 mph N/A Rain , Thunderstorm Heavy Thunderstorms and Rain
6:18 PM 73.4 °F - 69.8 °F 88% 30.09 in 4.0 mi Variable 5.8 mph 25.3 mph N/A Rain , Thunderstorm Light Thunderstorms and Rain
6:23 PM 73.4 °F - 69.8 °F 88% 30.10 in 3.0 mi Variable 2.3 mph - N/A Rain , Thunderstorm Light Thunderstorms and Rain
6:30 PM 73.4 °F - 71.6 °F 94% 30.09 in 10.0 mi East 4.6 mph - N/A Rain , Thunderstorm Light Thunderstorms and Rain
6:52 PM 73.4 °F - 73.4 °F 100% 30.09 in 10.0 mi Calm Calm - N/A Thunderstorm Thunderstorm
6:56 PM 73.4 °F - 73.4 °F 100% 30.09 in 10.0 mi Variable 2.3 mph - N/A Thunderstorm Thunderstorm
6:58 PM 73.9 °F - 73.2 °F 98% 30.10 in 10.0 mi WNW 4.6 mph - 0.45 in Thunderstorm Thunderstorm
7:03 PM 73.4 °F - 73.4 °F 100% 30.09 in 10.0 mi West 4.6 mph - N/A Thunderstorm Thunderstorm
7:21 PM 75.2 °F - 75.2 °F 100% 30.10 in 10.0 mi Calm Calm - N/A Thunderstorm Clear
7:58 PM 76.1 °F - 75.7 °F 99% 30.11 in 10.0 mi Calm Calm - N/A   Clear
8:58 PM 75.9 °F - 75.9 °F 100% 30.11 in 10.0 mi Calm Calm - N/A   Clear
9:58 PM 75.9 °F - 75.9 °F 100% 30.13 in 10.0 mi Variable 2.3 mph - N/A   Partly Cloudy
10:58 PM 75.0 °F - 75.0 °F 100% 30.13 in 10.0 mi NNW 1.2 mph - N/A   Clear
11:58 PM 74.3 °F - 74.3 °F 100% 30.13 in 10.0 mi Calm Calm - N/A   Clear